Retour au catalogue

KUIPER-00076

ActifCommunicationsLEO
NORAD 64823·PAYLOAD·🇺🇸 United States

Lancé Jul 16, 2025 depuis Cape Canaveral Space Force Station

Loading…

Prochains Passages (prochaines 24 heures)

TLE

FraisSource: CelesTrak SupGP

Époque: Sep 14, 2026, 15:28 UTC

1 64823C 25151H   26257.64493056  .00001666  00000+0  21812-3 0  2578
2 64823  51.8998 177.5417 0000914  85.0065 252.8301 14.79914019    12

Suivez KUIPER-00076 en temps réel avec AllMySat

Download on the App Store